Location: Augsburg
(48.3836°N, 10.8929°E)
Time: 05:34:46
(UTC+02:00)

Envisat - Visible Passes

Search period start: 19 July 2018 00:00
Search period end: 29 July 2018 00:00
Orbit: 764 x 766 km, 98.2° (Epoch: 18 July)

Date Brightness Start Highest point End Pass type
(mag) Time Alt. Az. Time Alt. Az. Time Alt. Az.
20 Jul 6.3 22:14:23 10° W 22:14:28 10° W 22:14:34 10° W visible
23 Jul 5.8 22:00:52 10° WSW 22:03:08 13° W 22:05:24 10° WNW visible
26 Jul 5.7 21:48:42 10° SW 21:51:48 16° W 21:54:55 10° NW visible
